Вернуться в каталог

FENGYUN 1C DEB

АктивенSSO
NORAD 31080·DEBRIS·🇨🇳 China

Запущен May 10, 1999 с Taiyuan Satellite Launch Center

Loading…

Ближайшие Пролёты (ближайшие 24 часа)

TLE

УстаревающийSource: Space-Track

Эпоха: Sep 9, 2026, 05:12 UTC

1 31080U 99025BGA 26252.21710589  .00001812  00000-0  76443-3 0  9996
2 31080  99.1168  48.3740 0067280  40.6550 319.9624 14.25769786668062

Отслеживайте FENGYUN 1C DEB в реальном времени с AllMySat

Download on the App Store